www.pogodaiklimat.ru
ПОГОДА в Портленде
Время
и дата
12:35 04.12
12:55 04.12
13:15 04.12
13:35 04.12
13:55 04.12
14:15 04.12
14:35 04.12
14:55 04.12
15:15 04.12
15:35 04.12
15:55 04.12
16:15 04.12
16:35 04.12
16:55 04.12
17:15 04.12
17:35 04.12
17:55 04.12
18:15 04.12
18:35 04.12
18:55 04.12
19:15 04.12
19:35 04.12
19:55 04.12
20:15 04.12
20:35 04.12
20:55 04.12
21:15 04.12
21:35 04.12
21:55 04.12
22:15 04.12
22:35 04.12
22:55 04.12
23:15 04.12
23:35 04.12
23:55 04.12
00:15 05.12
00:35 05.12
00:55 05.12
01:15 05.12
01:35 05.12
01:55 05.12
02:15 05.12
02:35 05.12
02:55 05.12
03:15 05.12
03:35 05.12
03:55 05.12
04:15 05.12
Ветер
(напр.,м/с)
Видим. Явления Облачность Т
(С)
Тd
(С)
f
(%)
Тe
(С)
Тes
(С)
Комфортность P
(гПа)
Po
(гПа)
Тmin
(С)
Tmax
(С)
R
(мм)
R24
(мм)
S
(см)
штиль 0 16 км 10/0 3000 m
[Ac]
+5.0 0.0 70 +4 +7 995.9
штиль 0 16 км 10/0 3000 m
[Ac]
+5.0 -1.0 65 +4 +7 995.2
штиль 0 16 км 10/0 3000 m
[Ac]
+5.0 -1.0 65 +4 +6 994.9
штиль 0 16 км 10/0 2850 m
[Ac]
+5.0 -1.0 65 +4 +6 994.6
штиль 0 16 км 5/0 2850 m
[Ac]
+5.0 0.0 70 +4 +9 994.6
С 2 16 км ясно +5.0 -1.0 65 +3 +6 994.6
С 2 16 км ясно +5.0 0.0 70 +3 +6 994.6
штиль 0 16 км ясно +5.0 0.0 70 +4 +9 994.2
штиль 0 16 км ясно +5.0 0.0 70 +4 +6 993.9
штиль 0 16 км ясно +5.0 0.0 70 +4 +6 993.9
штиль 0 16 км ясно +5.0 0.0 70 +4 +6 993.6
штиль 0 16 км ясно +5.0 0.0 70 +4 +5 993.3
штиль 0 16 км ясно +4.0 0.0 75 +3 +3 992.9
штиль 0 16 км ясно +4.0 0.0 75 +3 +3 993.3
штиль 0 16 км 8/8 1800 м +3.0 0.0 81 +2 +2 993.3
штиль 0 16 км 10/10 1800 м +3.0 +1.0 87 +2 +2 992.9
штиль 0 16 км 10/10 1800 м +2.0 0.0 87 +1 +1 992.9
штиль 0 16 км 10/10 1650 м +2.0 0.0 87 +1 +1 993.3
штиль 0 16 км 10/10 1800 м +1.0 0.0 93 0 0 993.3
штиль 0 16 км 10/10 1800 м +1.0 0.0 93 0 0 993.3
штиль 0 16 км 10/10 1800 м +1.0 0.0 93 0 0 992.9
штиль 0 16 км 10/10 1800 м +1.0 0.0 93 0 0 993.3
штиль 0 16 км 10/10 1800 м 0.0 0.0 100 -1 -1 993.3
штиль 0 16 км 10/10 1650 м 0.0 0.0 100 -1 -1 993.3
штиль 0 16 км 10/10 1800 м 0.0 0.0 100 -1 -1 992.9
штиль 0 16 км 10/10 1650 м 0.0 0.0 100 -1 -1 992.9
штиль 0 16 км 10/10 1650 м -1.0 -1.0 100 -2 -2 992.6
штиль 0 16 км 10/10 1650 м 0.0 -1.0 93 -1 -1 992.6
штиль 0 16 км 10/10 1650 м 0.0 0.0 100 -1 -1 992.6
штиль 0 16 км 10/10 1500 м -1.0 -1.0 100 -2 -2 992.3
Ю 2 16 км 10/10 1500 м -1.0 -1.0 100 -5 -5 991.9
штиль 0 16 км 10/10 1500 м -1.0 -1.0 100 -2 -2 991.9
Ю 3 16 км 10/10 1500 м -1.0 -1.0 100 -6 -6 991.9
штиль 0 16 км 10/10 1500 м -1.0 -1.0 100 -2 -2 991.6
штиль 0 16 км 10/10 1500 м -1.0 -1.0 100 -2 -2 991.3
штиль 0 16 км 10/10 1500 м -2.0 -2.0 100 -3 -3 990.9
штиль 0 16 км 10/10 1500 м -2.0 -2.0 100 -3 -3 990.6
ЮВ 2 16 км 10/10 1470 м -1.0 -1.0 100 -5 -5 990.3
Ю 3 16 км 10/10 1500 м -2.0 -2.0 100 -7 -7 990.3
ЮВ 2 16 км 10/10 1500 м -1.0 -1.0 100 -5 -5 990.3
штиль 0 16 км 10/10 1440 м -2.0 -2.0 100 -3 -3 990.3
ЮВ 2 16 км 10/10 1410 м -2.0 -2.0 100 -6 -6 990.0
штиль 0 16 км 10/10 1410 м -1.0 -1.0 100 -2 -2 990.0
Ю 2 16 км 10/10 1380 м 0.0 0.0 100 -4 -4 989.6
штиль 0 16 км 10/10 1380 м +1.0 0.0 93 0 0 989.3
штиль 0 16 км 10/10 1380 м 0.0 -1.0 93 -1 -1 989.3
Ю 2 16 км 10/5 1380 m
[Ac]
0.0 0.0 100 -4 -4 989.0
ЮВ 2 16 км 10/0 2400 m
[Ac]
+2.0 +1.0 93 -1 -1 988.6
Местоположение метеостанции Portland Municipal Airport: широта 36.5929 долгота -86.4769 высота над уровнем моря 239 м.
В архиве по умолчанию представлена погода в Портленде за последние 1-2 суток. Обновление информации о фактической погоде в базе происходит ежечасно! Архивные данные за месяц целиком и за предыдущие месяцы Вы можете получить, выбрав интересующий диапазон дат из раскрывающегося списка и нажав кнопку "Ввод!".
Внимание! Архив погоды МЕТАР в базе сайта по станциям, не включенным в климатический монитор, хранится не более 60 дней. Нет смысла пытаться выбрать более раннюю дату.
*Определитесь, кто Вы:
Внимание! Время в таблицах - местное (без учета летнего времени). Для получения всемирного времени необходимо вычесть поправку, которая равна -6 ч.
Смотрите также архив погоды в соседних городах и на ближайших метеорологических станциях:
Партнеры нашего сайта:      
Пояснения к столбцам:
  • Ветер - указаны скорость ветра в м/с - средняя за 10 мин, порывы в срок и между сроками (в фигурных скобках) и направление, откуда дует ветер: С - северный,
  • СВ - северо-восточный, В - восточный, ЮВ - юго-восточный, Ю - южный, ЮЗ - юго-западный, З - западный, СЗ - северо-западный.
  • Видимость - горизонтальная дальность видимости в метрах или километрах. При видимости от 1 до 10 км при отсутствии осадков обычно наблюдается дымка, при ухудшении видимости до 1 км и менее - туман. В сухую погоду видимость может ухудшаться дымом, пылью или мглою.
  • Явления - указаны атмосферные явления, наблюдавшиеся в срок или в последний час перед сроком; фигурными скобками обозначены явления, наблюдавшиеся между сроками (за 1-3 часа до срока); квадратными скобками обозначены град или гололедные отложения с указанием их диаметра в мм.
  • Облачность - указаны через наклонную черту общая и нижняя облачность в баллах и высота нижней границы облаков в метрах; квадратными скобками обозначены формы облаков: Ci - перистые, Cs - перисто-слоистые, Cc - перисто-кучевые, Ac - высококучевые, As - высокослоистые, Sc - слоисто-кучевые, Ns - слоисто-дождевые, Cu - кучевые, Cb - кучево-дождевые. Подробнее классификацию облаков см. в Атласе облаков (PDF).
  • T - Температура воздуха - температура, измеренная на высоте 2 м над землей.
  • Td - Температура точки росы - температура, при понижении до которой содержащийся в воздухе водяной пар достигнет насыщения.
  • f - Относительная влажность воздуха - влажноcть воздуха, измеренная на высоте 2 м над землей.
  • Te - Эффективная температура - температура, которую ощущает одетый по сезону человек в тени. Характеристика душности погоды. При расчете учитывается влияние влажности воздуха и скорости ветра на теплоощущения человека.
  • Tes - Эффективная температура на солнце - температура, которую ощущает человек, с поправкой на солнечный нагрев. Характеристика знойности погоды. Зависит от высоты солнца над горизонтом, облачности и скорости ветра. Ночью, в пасмурную погоду, а также при ветре 12 м/с и более поправка равна нулю.
  • P - Атмосферное давление - приведенное к уровню моря атмосферное давление.
  • Po - Атмосферное давление - измеренное на уровне метеостанции атмосферное давление.
  • Tmin - Минимальная температура - минимум температуры воздуха на высоте 2 м над землей.
  • Tmax - Максимальная температура - максимум температуры воздуха на высоте 2 м над землей.
  • R - Количество осадков - Количество выпавших осадков за период времени, мм. При наведении курсора мыши на число - период времени, за который выпало указанное количество осадков.
  • R24 - Количество осадков - Количество выпавших осадков за 24 часа, мм.
  • S - Снежный покров - Высота снежного покрова, см. При наведении курсора мыши на число - состояние снежного покрова и степень покрытия местности в баллах.